Location: Fuller Park
(33.8686°N, 117.9781°W)
Time: 23:37:42
(UTC+00:00)

CBERS-1 - Pass Details

Date: 03 August 2024
Orbit: 766 x 775 km, 98.8° (Epoch: 09 September)

Event Time Altitude Azimuth Distance (km) Brightness Sun altitude
Rises 12:13:01 0° 16° (NNE) 3,248 8.0 -10.7°
Reaches altitude 10° 12:15:21 10° 19° (NNE) 2,316 7.2 -10.3°
Maximum altitude 12:20:25 66° 102° (ESE) 837 4.4 -9.3°
Drops below altitude 10° 12:25:27 10° 184° (S) 2,297 6.2 -8.4°
Sets 12:27:45 0° 187° (S) 3,218 6.9 -8.0°
